Regional Weather Roundup
Issued by NWS

Home | Current Version | Previous Version | Graphics & Text | Print | Product List | Glossary On
Versions: 1 2 3 4 5 6 7 8 9 10 11 12 13 14 15 16 17 18 19 20 21 22 23 24 25 26 27 28 29 30 31 32 33 34 35 36 37 38 39 40 41 42 43 44 45 46 47 48 49 50
000
ASUS45 KSLC 292310
RWRUT

UTAH REGIONAL WEATHER ROUNDUP
NATIONAL WEATHER SERVICE SALT LAKE CITY UT
500 PM MDT TUE JUL 29 2014

UTZ001>011-023>025-300000-

NORTHERN UTAH

CITY           SKY/WX    TMP DP  RH WIND       PRES   REMARKS
HILL AFB       LGT RAIN  70  63  78 S14       30.19S
LOGAN          MOSUNNY   72  60  66 N3        30.18F
OGDEN          PTSUNNY   75  60  59 NW8       30.16F
PROVO AIRPORT  PTSUNNY   73  61  64 W7        30.19S
SALT LAKE CITY CLOUDY    72  62  71 S5        30.16F
VERNAL         TSTM      62  54  74 NW12      30.23R
WENDOVER       PTSUNNY   72  59  64 NW13      30.17F
HEBER CITY     CLOUDY    72  55  56 N6        30.23F
WEST JORDAN    SUNNY     75  64  69 N5        30.19F

$$

UTZ012>022-026-027-300000-

SOUTHERN UTAH

CITY           SKY/WX    TMP DP  RH WIND       PRES   REMARKS
BRYCE CANYON   CLOUDY    64  56  75 N7        30.37F
CEDAR CITY     CLOUDY    75  60  59 SE14      30.21F THUNDER
MILFORD        PTSUNNY   76  54  46 VRB3      30.18F
MOAB/CYNLANDS  TSTM      66  62  87 S25G39    30.14R VSB 1/2
PRICE          PTSUNNY   77  52  41 W7        30.22F
ST GEORGE      CLOUDY    97  54  23 W16G23    29.99F HX  94
KANAB            N/A     88  52  29 SW10G16   30.17F

$$

REGIONAL REPORTS     COLORADO/ARIZONA

CITY           SKY/WX    TMP DP  RH WIND       PRES   REMARKS
CRAIG, CO      CLOUDY    65  58  78 NE8       30.27F
GRAND JUNCTION PTSUNNY   80  58  46 SE8       30.14F
RIFLE          CLOUDY    75  56  51 N5        30.22F
MONTROSE       CLOUDY    76  56  49 SE3       30.25F
CORTEZ         SUNNY     78  52  40 N16G24    30.22S
PAGE, AZ       MOSUNNY   95  46  18 VRB6      30.06F HX  91
GRAND CANYON   PTSUNNY   79  49  34 W8G18     30.29F
KINGMAN        SUNNY     96  48  19 SW17G24   30.05F HX  92
FLAGSTAFF      MOSUNNY   77  51  40 SW16G24   30.32F

$$

REGIONAL REPORTS    NEVADA/IDAHO/WYOMING

CITY           SKY/WX    TMP DP  RH WIND       PRES   REMARKS
LAS VEGAS, NV  MOSUNNY  101  50  18 W17G24    29.91F HX  98
ELY            MOSUNNY   81  44  27 N9G17     30.25F
ELKO           CLOUDY    80  50  34 SW8       30.16F
POCATELLO, ID  SUNNY     78  58  49 E6        30.17F
BURLEY         CLOUDY    81  52  36 E7        30.12F
EVANSTON, WY   CLOUDY    64  56  75 MISG      30.32F
ROCK SPRINGS   LGT RAIN  61  55  81 NE22      30.34S

$$



USA.gov is the U.S. government's official web portal to all federal, state and local government web resources and services.